Probability
0 0 0 0 0 0 0 0 0 0 0 0 0 0 0 0 0 0 0 0 0 0 0 0 0 0 0 0 0 0 0 0 1 2 2 1 0 0 0 0 0 0 0 0 0 0 0 0 0
0 0 0 0 0 0 0 0 0 0 0 0 0 0 0 0 0 0 0 0 0 0 0 0 0 0 0 0 0 0 0 0 0 1 2 1 0 0 0 0 0 0 0 0 0 0 0 0 0
0 0 0 0 0 0 0 0 0 0 0 0 0 0 0 0 0 0 0 0 0 0 0 0 0 0 0 0 0 0 0 0 0 1 2 1 0 0 0 0 0 0 0 0 0 0 0 0 0
0 0 0 0 0 0 0 0 0 0 0 0 0 0 0 0 0 0 0 0 0 0 0 0 0 0 0 0 0 0 0 0 0 1 1 1 0 0 0 0 0 0 0 0 0 0 0 0 0
0 0 0 0 0 0 0 0 0 0 0 0 0 0 0 0 0 0 0 0 0 0 0 0 0 0 0 0 0 0 0 0 0 0 0 0 0 0 0 0 0 0 0 0 0 0 0 0 0
0 0 0 0 0 0 0 0 0 0 0 0 0 0 0 0 0 0 0 0 0 0 0 0 0 0 0 0 0 0 0 0 0 0 0 0 0 0 0 0 0 0 0 0 0 0 0 0 0
0 0 0 0 0 0 0 0 0 0 0 0 0 0 0 0 0 0 0 0 0 0 0 0 0 0 0 0 0 0 0 0 0 0 0 0 0 0 0 0 0 0 0 0 0 0 0 0 0
0 0 0 0 0 0 0 0 0 0 0 0 0 0 0 0 0 0 0 0 0 0 0 0 0 0 0 0 0 0 0 0 0 0 0 0 0 0 0 0 0 0 0 0 0 0 0 0 0
0 0 0 0 0 0 0 0 0 0 0 0 0 0 0 0 0 0 0 0 0 0 0 0 0 0 0 0 0 0 0 0 0 0 0 0 0 0 0 0 0 0 0 0 0 0 0 0 0
0 0 0 0 0 0 0 0 0 0 0 0 0 0 0 0 0 0 0 0 0 0 0 0 0 0 0 0 0 0 0 0 0 0 0 0 0 0 0 0 0 0 0 0 0 0 0 0 0
0 0 0 0 0 0 0 0 0 0 0 0 0 0 0 0 0 0 0 0 0 0 0 0 0 0 0 0 0 0 0 0 0 0 0 0 0 0 0 0 0 0 0 0 0 0 0 0 0
0 0 0 0 0 0 0 0 0 0 0 0 0 0 0 0 0 0 0 0 0 0 0 0 0 0 0 0 0 0 0 0 0 0 0 0 0 0 0 0 0 0 0 0 0 0 0 0 0
0 0 0 0 0 0 0 0 0 0 0 0 0 0 1 0 0 0 0 0 0 0 0 0 0 0 0 0 0 0 0 0 0 0 0 0 0 0 0 0 0 0 0 0 0 0 0 0 0
0 0 0 0 0 0 0 0 0 0 0 0 0 0 0 0 0 0 0 0 0 0 0 0 0 0 0 0 0 0 0 0 0 0 0 0 0 0 0 0 0 0 0 0 0 0 0 0 0
0 0 0 0 0 0 0 0 0 0 0 0 0 0 0 0 0 0 0 0 0 0 0 0 0 0 0 0 0 0 0 0 0 0 0 0 0 0 0 0 0 0 0 0 0 0 0 0 0
0 0 0 0 0 0 0 0 0 0 0 0 0 0 0 0 0 0 0 0 0 0 0 0 0 0 0 0 0 0 0 0 0 0 0 0 0 0 0 0 0 0 0 0 0 0 0 0 0
0 0 0 0 0 0 0 0 0 0 0 0 0 0 0 0 0 0 0 0 0 0 0 0 0 0 0 0 0 0 0 0 0 0 0 0 0 0 0 0 0 0 0 0 0 0 0 0 0
0 0 0 0 0 0 0 0 0 0 0 0 0 0 0 0 0 0 0 0 0 0 0 0 1 1 1 0 0 0 0 0 0 0 0 0 0 0 0 0 0 0 0 0 0 0 0 0 0
0 0 0 0 0 0 0 0 0 0 0 0 0 0 0 0 0 0 0 0 0 0 1 3 5 6 6 5 3 1 0 0 0 0 0 0 0 0 0 0 0 0 0 0 0 0 0 0 0
0 0 0 0 0 0 0 0 0 0 0 0 0 0 0 0 0 1 2 1 0 1 2 6 14 22 24 19 9 2 0 0 0 0 0 0 0 0 0 0 0 0 0 0 0 0 0 0 0
0 0 0 0 0 0 0 0 0 0 0 0 0 0 0 0 0 4 8 5 3 8 16 23 37 53 53 36 15 3 1 0 0 0 0 0 0 0 0 0 0 0 0 0 0 0 0 0 0
0 0 0 0 0 0 0 0 0 0 0 0 0 0 0 0 0 9 20 22 22 36 51 61 71 79 68 38 14 4 2 0 0 0 0 0 0 0 0 0 0 0 0 0 0 0 0 0 0
0 0 0 0 0 0 0 0 0 0 0 0 0 0 0 0 0 11 28 37 43 59 75 85 89 84 60 28 8 2 1 0 0 0 0 0 0 0 0 0 0 0 0 0 0 0 0 0 0
0 0 0 0 0 0 0 0 0 0 0 0 0 0 0 0 0 7 21 29 33 43 55 63 65 61 43 21 7 1 0 0 0 0 0 0 0 0 0 0 0 0 0 0 0 0 0 0 0
0 0 0 0 0 0 0 0 0 0 0 0 0 0 0 0 0 2 7 10 9 11 16 21 24 26 23 16 7 1 0 0 0 0 0 0 0 0 0 0 0 0 0 0 0 0 0 0 0
0 0 0 0 0 0 0 0 0 0 0 0 0 0 0 0 0 0 0 1 1 0 0 1 2 4 6 5 3 0 0 0 0 0 0 0 0 0 0 0 0 0 0 0 0 0 0 0 0
0 0 0 0 0 0 0 0 0 0 0 0 0 0 0 0 0 0 0 0 0 0 1 0 0 0 0 0 0 0 0 0 0 0 0 0 0 0 0 0 0 0 0 0 0 0 0 0 0
0 0 0 0 0 0 0 0 0 0 0 0 0 0 0 0 0 0 0 0 0 0 0 0 0 0 0 0 0 0 0 0 0 0 0 0 0 0 0 0 0 0 0 0 0 0 0 0 0
0 0 0 0 0 0 0 0 0 0 0 0 0 0 0 0 0 0 0 0 0 0 0 0 0 0 0 0 0 0 0 0 0 0 0 0 0 0 0 0 0 0 0 0 0 0 0 0 0
0 0 0 0 0 0 0 0 0 0 0 0 0 0 0 0 0 0 0 0 0 0 0 0 0 0 0 0 0 0 0 0 0 0 0 0 0 0 0 0 0 0 0 0 0 0 0 0 0
Wind_Speed
5 2 3 3 5 5 1 1 1 1 2 1 2 5 6 3 2 2 3 6 10 10 8 10 13 13 12 12 13 13 12 13 13 13 13 12 11 10 10 10 9 9 7 7 7 6 6 6 5
2 2 3 4 5 3 2 2 1 1 5 4 4 4 4 2 2 5 6 6 11 10 7 7 13 13 12 13 13 12 12 13 13 13 14 13 11 10 9 9 9 9 8 7 7 6 6 6 5
1 3 3 4 4 2 2 1 2 2 3 1 2 3 3 2 4 6 6 11 10 8 5 8 13 12 12 12 12 13 12 13 13 13 13 12 11 10 9 8 8 8 8 8 8 7 6 7 6
2 3 4 4 2 1 2 1 1 2 1 2 3 3 2 2 6 6 10 12 10 6 4 7 11 12 12 13 13 14 14 13 13 13 12 12 11 9 7 6 8 9 8 8 8 8 8 7 7
4 3 4 4 1 2 3 3 4 5 2 2 3 3 2 1 5 11 11 10 9 6 4 5 11 12 12 11 10 12 14 13 13 13 12 11 11 9 7 7 7 8 8 8 8 9 9 8 8
4 4 4 1 3 3 2 1 2 4 2 2 4 4 1 2 8 10 10 7 7 7 6 5 10 12 12 12 12 11 12 12 12 12 11 11 10 9 7 6 6 7 7 7 7 8 8 8 7
4 4 3 0 2 3 2 2 2 4 4 4 5 3 1 2 5 9 8 7 5 5 5 4 4 8 11 12 12 12 11 11 11 11 10 10 9 8 7 6 5 4 4 4 5 6 7 7 6
4 5 2 1 2 2 4 4 2 5 3 3 3 4 4 5 8 7 6 6 5 5 5 3 4 4 4 6 10 11 11 11 10 10 9 8 7 7 6 5 4 5 4 3 3 4 5 6 7
3 4 1 1 1 2 3 4 1 2 5 2 1 3 5 13 11 7 5 4 4 5 5 4 4 3 3 3 6 9 10 11 10 9 9 6 2 3 3 3 4 5 4 3 2 2 3 5 6
4 3 4 4 3 2 2 2 2 3 3 1 1 2 9 14 12 10 8 7 8 8 7 6 6 4 4 3 3 3 4 5 5 4 5 3 2 2 3 3 5 4 3 2 1 1 3 4 3
2 2 2 3 3 1 2 3 3 3 3 2 4 9 12 12 11 11 11 10 11 9 9 9 8 7 5 3 3 2 2 3 4 4 5 3 2 2 2 0 0 0 2 2 3 4 3 1 2
0 2 1 3 4 1 3 4 3 0 2 5 6 12 13 14 14 15 13 10 8 8 10 9 8 6 5 4 3 3 3 4 4 4 5 4 2 2 2 1 1 1 1 2 1 1 1 0 2
1 1 1 4 7 5 6 4 2 3 5 6 8 12 13 14 14 14 11 10 8 7 8 8 8 7 5 4 3 3 3 4 5 4 4 4 3 3 2 2 2 2 2 2 1 1 2 2 3
2 0 2 5 5 5 4 5 2 2 7 1 10 13 12 12 13 11 10 10 9 9 9 9 9 8 7 5 5 4 4 4 5 5 5 5 4 3 3 3 3 2 2 2 2 2 2 3 3
2 1 1 3 4 3 4 5 1 3 6 5 2 3 8 9 10 13 13 11 11 10 9 10 10 9 8 7 6 5 5 5 4 4 5 5 5 5 4 3 3 3 3 3 2 1 1 2 2
2 2 3 3 2 2 1 4 1 0 2 4 5 4 5 6 8 10 10 11 10 8 8 10 10 10 9 7 6 4 5 5 5 5 4 5 5 5 4 4 4 4 3 3 2 1 1 1 2
3 2 2 4 2 4 2 5 4 0 2 5 7 6 6 6 7 7 10 11 11 11 9 11 12 12 11 8 6 4 4 5 4 4 4 6 6 6 5 5 4 3 3 3 2 1 2 2 2
2 2 2 4 4 4 4 7 10 6 6 6 6 8 8 8 10 9 9 13 14 12 11 12 11 11 10 7 5 4 3 4 4 4 5 6 6 6 5 4 4 3 3 3 3 3 2 2 2
1 0 3 3 2 3 4 9 12 11 11 12 9 7 9 8 9 9 10 11 15 14 13 14 13 10 10 7 5 5 4 3 2 3 4 4 5 4 4 3 4 4 4 5 4 2 2 2 2
2 1 3 3 1 2 5 7 5 9 9 12 13 13 12 10 9 13 12 9 11 15 15 15 15 14 12 9 5 4 4 3 3 3 4 4 4 3 3 4 4 5 4 5 4 3 2 2 2
1 2 3 3 2 3 4 4 6 6 7 13 15 13 14 13 12 12 13 9 7 11 13 12 13 12 7 5 6 5 5 3 3 2 2 4 5 5 5 4 3 3 3 4 4 4 4 4 2
4 3 1 1 2 3 3 5 5 8 11 17 17 17 16 16 15 10 10 6 3 4 5 7 8 10 10 7 3 4 5 4 4 3 3 3 4 4 4 4 4 5 4 5 5 6 4 5 4
2 4 3 2 1 3 1 2 6 7 11 18 17 16 15 15 14 10 8 5 6 6 6 6 8 9 10 6 3 2 2 3 2 2 3 3 3 4 5 6 5 4 4 4 6 6 6 5 5
2 3 3 3 2 4 4 3 4 4 9 15 16 15 14 14 14 11 7 7 9 10 11 10 9 16 12 2 3 3 2 3 4 4 4 3 3 3 4 4 4 4 4 4 4 5 5 5 4
9 5 4 3 3 6 3 3 0 5 5 9 13 14 14 12 12 11 9 5 5 7 11 12 10 13 8 1 5 4 4 6 6 5 4 4 3 2 3 4 4 4 4 5 4 4 4 4 5
3 2 1 3 4 5 2 4 5 2 6 10 11 12 13 12 10 6 6 6 4 5 7 9 6 4 4 4 6 6 6 3 3 3 3 3 2 2 3 4 4 5 5 5 4 3 4 4 4
6 3 1 2 5 5 4 2 4 13 16 18 17 16 14 12 11 7 6 4 6 3 5 13 15 11 7 8 5 4 5 3 2 0 2 3 3 3 4 4 3 2 1 3 3 4 4 4 3
2 3 4 3 4 5 2 2 7 16 18 19 19 18 16 12 9 8 7 7 9 9 9 10 7 7 6 1 8 9 7 6 4 3 2 2 4 4 3 3 3 3 2 2 3 2 1 2 3
5 3 2 2 4 3 2 1 7 11 12 14 15 15 14 13 11 5 6 9 9 10 10 7 7 9 5 9 11 11 4 4 3 2 1 2 4 4 4 4 3 3 4 4 3 2 2 2 2
3 4 4 2 4 3 1 2 6 9 11 13 15 15 13 12 9 1 6 3 1 1 2 2 3 4 10 8 9 8 6 5 4 4 2 2 3 4 6 5 6 6 5 5 5 5 3 3 2
Wind_Direction
334 60 114 71 52 63 67 250 256 329 67 27 83 105 118 111 144 196 153 165 139 151 166 161 158 157 159 154 155 158 154 145 142 138 133 128 125 127 127 125 122 118 109 99 99 103 101 101 106
343 112 80 69 75 65 302 298 287 224 143 147 103 94 93 91 134 138 141 159 147 152 157 160 161 161 160 159 161 160 153 146 142 143 140 137 137 137 134 126 123 118 113 102 94 94 95 92 87
37 75 84 78 94 148 234 333 311 355 142 163 88 69 97 140 140 155 149 141 141 149 147 160 164 162 160 161 164 162 155 150 148 146 145 143 143 140 138 137 132 122 115 104 97 91 88 88 77
108 62 58 74 76 216 224 260 263 125 241 76 103 82 74 152 156 154 138 137 139 142 135 161 164 165 166 169 168 166 154 152 151 149 146 143 140 136 135 145 144 135 127 113 101 90 80 73 69
70 79 65 62 310 251 252 247 197 175 190 121 117 124 93 56 106 127 137 141 141 132 127 156 168 168 170 169 169 165 151 155 154 152 149 146 142 137 133 134 137 139 132 119 104 92 84 71 65
56 62 79 77 296 276 257 265 167 154 169 144 126 120 117 140 127 135 138 138 139 141 141 156 170 171 175 170 169 169 159 158 157 158 155 149 143 137 135 133 139 139 135 124 109 96 87 76 61
92 80 90 181 338 329 331 344 178 146 152 179 150 114 168 177 140 141 138 135 131 139 149 158 155 175 180 174 172 174 168 166 165 160 158 155 152 145 143 145 143 147 149 138 113 96 84 69 51
112 103 99 346 26 306 312 344 176 155 147 146 144 158 196 166 145 131 116 126 137 146 153 149 148 167 169 173 181 181 172 172 168 162 161 163 161 154 148 151 163 179 173 155 108 83 69 58 50
91 80 117 209 182 277 319 358 344 101 113 140 176 173 169 139 142 128 116 124 142 156 158 152 155 159 157 163 183 180 175 176 168 158 158 157 134 121 125 143 173 176 165 146 99 69 80 81 66
80 127 211 208 195 224 311 319 310 113 127 132 60 65 129 141 155 158 168 174 181 184 181 173 170 170 161 168 169 165 164 157 148 142 135 122 121 119 131 176 177 181 164 112 55 29 46 61 53
101 196 237 247 220 206 304 309 326 132 185 197 202 164 152 156 170 178 186 188 189 185 188 186 181 175 167 166 167 157 131 132 137 140 134 132 128 128 126 145 181 171 101 59 30 13 12 39 100
287 279 279 326 351 352 296 316 348 49 270 281 226 169 163 171 184 189 193 196 186 181 192 185 182 176 171 165 180 155 142 146 135 146 149 149 150 162 180 174 180 119 82 92 53 2 334 124 110
243 270 335 10 18 5 319 293 269 235 291 293 162 167 179 183 193 199 197 198 191 190 193 182 174 178 172 168 165 153 145 148 143 153 172 166 163 175 188 198 193 175 160 162 185 142 142 139 127
270 101 24 17 10 11 347 305 291 283 326 278 171 180 184 192 195 199 204 201 197 195 192 179 177 175 169 174 172 169 146 146 145 163 184 179 177 179 191 202 204 187 191 187 178 164 156 150 147
312 331 348 4 340 335 347 300 263 351 3 11 339 234 198 195 196 205 208 209 203 198 190 184 180 172 175 179 178 173 162 154 156 178 190 195 188 185 192 199 209 191 196 194 173 148 132 140 139
5 357 320 316 351 312 329 275 293 162 12 318 310 300 257 222 214 213 211 217 213 198 188 187 186 176 179 179 177 177 167 163 169 182 190 201 200 191 185 200 218 199 188 183 175 165 152 173 178
7 288 297 306 11 345 354 276 288 237 283 291 298 301 294 283 271 242 219 218 218 205 187 183 189 181 179 176 166 164 170 170 176 181 182 194 206 202 194 206 221 193 182 192 189 177 167 183 195
256 288 291 291 344 357 326 295 301 341 331 313 307 305 300 294 283 277 251 223 216 208 191 181 188 182 171 158 142 138 162 177 178 185 190 195 205 200 195 220 212 190 199 201 197 175 154 162 162
98 293 287 292 356 338 319 308 320 357 2 348 335 303 293 292 288 288 291 254 223 202 194 181 177 177 166 163 160 158 177 168 172 189 189 194 212 204 189 220 210 193 201 196 184 152 131 126 126
66 334 285 287 33 347 327 315 343 16 22 6 356 349 334 314 311 302 294 279 231 211 197 184 179 177 180 181 161 135 131 139 140 156 180 190 198 201 187 222 217 187 179 170 156 140 106 92 139
302 231 267 296 358 18 341 321 353 352 357 359 1 354 354 341 316 309 303 273 230 215 206 191 181 167 166 140 109 83 77 72 94 140 186 191 188 181 172 201 216 185 174 167 160 157 162 147 147
302 320 297 345 8 320 15 304 338 334 345 1 358 358 356 350 335 311 323 306 238 207 162 153 157 142 120 100 117 152 149 159 166 169 184 175 178 184 180 176 194 185 180 172 169 170 160 150 149
330 34 48 38 44 312 294 263 312 352 355 354 350 358 357 349 345 343 351 13 49 62 75 95 106 86 88 107 159 230 116 124 139 146 169 181 188 196 193 183 184 188 189 184 174 165 163 168 167
8 359 15 24 56 270 230 206 311 358 335 337 342 353 353 350 351 351 352 36 43 44 47 50 70 82 65 350 213 174 145 170 180 186 195 193 205 209 191 181 182 198 196 190 189 174 180 190 194
7 8 333 307 216 236 197 162 318 318 331 339 339 347 345 350 355 1 14 20 75 64 58 45 48 73 81 316 257 146 182 205 203 191 189 192 193 178 189 170 182 197 195 202 198 177 185 194 212
318 70 234 278 280 293 249 207 172 331 331 345 343 343 347 353 355 360 18 42 83 124 119 100 85 91 60 343 254 168 185 196 201 188 184 188 163 169 164 172 189 196 190 210 207 181 194 203 217
329 348 244 241 292 287 284 353 344 351 348 348 346 345 344 339 342 340 349 13 82 89 173 163 158 169 181 245 229 93 68 58 37 103 197 189 172 169 166 168 167 163 182 229 215 208 212 205 221
39 333 11 356 288 274 278 61 344 348 340 339 340 337 332 329 334 336 4 16 59 62 61 91 122 210 217 222 58 64 75 104 145 167 184 197 194 184 152 159 152 129 159 214 217 227 252 240 244
352 2 312 239 245 277 271 59 342 332 328 332 331 329 328 330 329 342 46 32 32 58 65 86 203 204 133 97 85 77 80 130 160 187 212 225 210 180 179 189 165 171 198 202 187 208 200 208 237
2 291 265 263 274 282 273 258 292 332 342 345 338 334 341 344 326 157 129 112 228 141 71 339 271 124 110 101 110 140 182 167 191 205 198 285 271 210 204 185 173 183 191 191 190 183 193 197 210